Location: Columbia
(38.9520°N, 92.3340°W)
Time: 14:13:43
(UTC-06:00)

Cosmos 2219 Rocket - Visible Passes

Search period start: 28 January 2015 00:00
Search period end: 07 February 2015 00:00
Orbit: 829 x 846 km, 71.0° (Epoch: 28 January)

Date Brightness Start Highest point End Pass type
(mag) Time Alt. Az. Time Alt. Az. Time Alt. Az.
30 Jan 4.5 06:44:31 10° N 06:48:13 18° NE 06:52:04 10° E visible
31 Jan 4.6 06:28:23 10° NNE 06:31:52 17° NE 06:35:31 10° E visible
01 Feb 4.6 06:12:17 10° NNE 06:15:30 16° NE 06:18:56 10° E visible
02 Feb 4.7 05:56:12 10° NNE 05:59:09 15° NE 06:02:20 10° E visible
03 Feb 4.8 05:40:08 10° NNE 05:42:47 14° NE 05:45:41 10° E visible
04 Feb 4.8 05:24:08 10° NNE 05:26:25 13° NE 05:28:59 10° ENE visible
05 Feb 4.9 05:08:10 10° NNE 05:10:03 12° NE 05:12:13 10° ENE visible
06 Feb 5.0 04:52:21 10° NNE 04:53:41 11° NE 04:55:19 10° ENE visible
06 Feb 2.5 06:33:14 10° NNW 06:38:50 72° ENE 06:44:23 10° SSE visible
